OPS 7218 (TRANSIT 16) 1 02807U 67048A 10245.92782927 +.00000074 +00000-0 +10000-3 0 04619 2 02807 089.6726 188.7853 0022646 043.6083 316.6850 13.49745889130349 OPS 4947 (TRANSIT 17) 1 02965U 67092A 10245.65414402 +.00000078 +00000-0 +10000-3 0 07261 2 02965 089.2350 089.2570 0046233 225.7079 134.0269 13.52456346116925 OPS 7034 (TRANSIT 18) 1 03133U 68012A 10245.61152275 .00000076 00000-0 10000-3 0 6475 2 03133 089.9681 285.5873 0076536 122.8161 238.0384 13.50561197 92275 NNSS 19 (TRANSIT 19) 1 04507U 70067A 10246.23642902 .00000068 00000-0 84833-4 0 3254 2 04507 089.8514 305.3892 0170624 242.5557 115.8139 13.50174033969462 NNSS 20 (TRANSIT 20) 1 06909U 73081A 10245.81739968 +.00000104 +00000-0 +99422-4 0 07719 2 06909 089.8658 351.6686 0156727 223.9733 134.8876 13.69801095039654 TRANSAT 1 10457U 77106A 10245.91288589 +.00000072 +00000-0 +10000-3 0 00781 2 10457 089.6917 234.8505 0027629 074.7434 285.6765 13.48284622615620 NOVA 1 1 12458U 81044A 10245.80212783 +.00000050 +00000-0 +10000-3 0 01171 2 12458 090.0667 119.3213 0014820 010.9222 349.2186 13.22722726414355 NOVA 3 1 15362U 84110A 10246.00021416 .00000050 00000-0 10000-3 0 1630 2 15362 089.9873 050.1435 0030097 222.0785 137.8041 13.22501502249635 OSCAR 30 1 15935U 85066A 10245.92202859 +.00000005 +00000-0 -43014-5 0 06559 2 15935 090.0640 025.3857 0169689 338.5430 020.8654 13.35286176219783 OSCAR 24 1 15936U 85066B 10245.75804409 .00000089 00000-0 14728-3 0 834 2 15936 090.0565 022.0233 0169779 342.0306 017.4880 13.35181621221880 POLAR BEAR 1 17070U 86088A 10245.60124931 +.00000028 +00000-0 +17035-4 0 01704 2 17070 089.5222 088.0245 0040031 019.3498 340.9167 13.74366227193402 OSCAR 27 1 18361U 87080A 10245.74401851 +.00000068 +00000-0 +10000-3 0 06843 2 18361 090.3432 248.4483 0106396 355.5487 004.4697 13.44099259126079 OSCAR 29 1 18362U 87080B 10246.21598625 .00000068 00000-0 10000-3 0 9420 2 18362 090.3445 248.6049 0108269 005.7949 354.4409 13.43726798125894 OSCAR 23 1 19070U 88033A 10245.88140192 +.00000057 +00000-0 +10000-3 0 08753 2 19070 090.2664 196.0622 0188828 209.6122 149.4228 13.27127682082558 OSCAR 32 1 19071U 88033B 10245.87959730 +.00000057 +00000-0 +10000-3 0 05374 2 19071 090.2652 196.1449 0187045 201.3641 157.9614 13.27333543082726 NOVA 2 1 19223U 88052A 10245.72558529 +.00000050 +00000-0 +10000-3 0 07116 2 19223 090.0074 091.4435 0028725 267.2316 092.5509 13.22431998072131 OSCAR 25 1 19419U 88074A 10245.82737641 +.00000066 +00000-0 +10000-3 0 09324 2 19419 089.9304 028.0659 0095800 316.0205 043.3343 13.41832839078195 OSCAR 31 1 19420U 88074B 10246.28458773 .00000066 00000-0 10000-3 0 6061 2 19420 089.9303 028.0010 0093811 309.2289 050.0548 13.41882259 78354